Weather Roundup
Issued by NWS Springfield, MO

Home | Current Version | Previous Version | Text Only | Print | Product List | Glossary On
Versions: 1 2 3 4 5 6 7 8 9 10 11 12 13 14 15 16 17 18 19 20 21 22 23 24 25 26 27 28 29 30 31 32 33 34 35 36 37 38 39 40 41 42 43 44 45 46 47 48 49 50
000
NZUS99 KSGF 252057
HRRSGF

HOURLY WEATHER
NATIONAL WEATHER SERVICE SPRINGFIELD MO
300 PM CST SAT FEB 25 2017

......SGF CWA......

CITY           SKY/WX    TMP DP  RH WIND       PRES   REMARKS
SPRINGFIELD    SUNNY     43  12  28 N5        30.11F
JOPLIN         SUNNY     43  13  29 VRB5      30.14F
WEST PLAINS    SUNNY     46  13  26 NW14      30.10F
BRANSON        SUNNY     41  12  30 W7        30.13F

......SURROUNDING SGF CWA......

CITY           SKY/WX    TMP DP  RH WIND       PRES   REMARKS
CHANUTE        SUNNY     46  10  23 W7        30.12F
PARSONS        SUNNY     46  10  23 W6        30.14F
COFFEYVILLE    SUNNY     45  10  24 CALM      30.14F
EMPORIA        SUNNY     44   8  23 S12       30.09F
HARRISON AR    SUNNY     46  13  26 N8G17     30.12F

......KANSAS AND MISSOURI......

CITY           SKY/WX    TMP DP  RH WIND       PRES   REMARKS
KANSAS CTY INT MOSUNNY   39  10  30 VRB5      30.10F
SEDALIA        SUNNY     42   8  24 NW12      30.12F
ST JOSEPH      SUNNY     37  16  42 CALM      30.11F
ST LOUIS       MOSUNNY   41  13  31 NW22      30.09R
WICHITA        MOSUNNY   44  15  31 SW13G20   30.09F
TOPEKA         SUNNY     42  10  27 S5        30.10F
OLATHE         SUNNY     40  13  33 W8        30.10F WCI  34

......TENNESSEE......

CITY           SKY/WX    TMP DP  RH WIND       PRES   REMARKS
MEMPHIS        NOT AVBL
NASHVILLE      MOSUNNY   49  16  26 NW12      30.03R

......ARKANSAS.......

CITY           SKY/WX    TMP DP  RH WIND       PRES   REMARKS
FAYETTEVILLE   SUNNY     45  14  28 NW10      30.13F
FT SMITH       SUNNY     51  12  21 VRB5      30.16F
LITTLE ROCK    SUNNY     51  16  24 NW10      30.16F

......OKLAHOMA.......

CITY           SKY/WX    TMP DP  RH WIND       PRES   REMARKS
TULSA          MOSUNNY   47  12  24 W6        30.15F
PONCA CITY     MOSUNNY   44  17  33 SW7       30.13F
MCALESTER      SUNNY     49  12  22 CALM      30.17F
OKLAHOMA CITY  SUNNY     47  12  24 S8        30.12F

......IOWA............

CITY           SKY/WX    TMP DP  RH WIND       PRES   REMARKS
DES MOINES     NOT AVBL
QUAD CITIES    SUNNY     32  17  54 W18G28    30.01R WCI  20

......ILLINOIS........

CITY           SKY/WX    TMP DP  RH WIND       PRES   REMARKS
QUINCY         SUNNY     35  13  40 NW15G24   30.07S WCI  25
CHICAGO        FLURRIES  26  14  60 W18       29.91R WCI  13



USA.gov is the U.S. government's official web portal to all federal, state and local government web resources and services.